Погода в Белозирке

Украина / Тернопольская область     49°46′19″N   26°09′47″E
темп.,
°C
ветер,
м/с
пор.,
м/с
влажн.,
%
обл.,
%
осадки,
мм/ч
давл.,
гПа
погр.,
м
15 мая, сб
сб1500:00+10зюз3890100 0.0 1007212
03:00+9юз3892100 0.0 1008188
06:00+10юз4893100 0.0 1008364
09:00+11зюз4796100 0.1 1009577
12:00+11з4792100 0.2 1011545
15:00+14з357674 0.3 1010829
18:00+16зсз347087 1.4 1011732
21:00+12юз11845 1.6 101110
16 мая, вс
вс1600:00+10ююв11885 0.0 101110
03:00+9юв22905 0.0 101222
06:00+9юв369358 0.0 101192
09:00+15юв5876100 0.0 1011461
12:00+19ююв676499 0.0 10091025
15:00+21ююв7105185 0.0 10081841
18:00+16ююв71178100 1.3 1008451
21:00+15юв488398 3.5 1007153
17 мая, пн
пн1700:00+13юз3888100 0.7 1007157
03:00+12ссз2294100 1.3 100816
06:00+12ссз359457 0.0 1008159
09:00+15сз457715 0.0 1008514
12:00+18с336278 0.0 1007985
15:00+20ссз225593 0.1 10051632
18:00+18ссз226697 0.0 1004210
21:00+14всв22794 0.0 100413
18 мая, вт
вт1800:00+12ююв2289100 0.0 100310
03:00+11зюз3494100 1.2 100283
06:00+12з2497100 1.1 1002181
09:00+10з61196100 12.2 1003625
12:00+10з71291100 1.8 1005892
15:00+11з8138462 2.1 10061075
18:00+12зсз7127477 0.3 10071331
21:00+10з6128616 0.7 1008487
19 мая, ср
ср1900:00+9зюз613924 0.0 1008456
03:00+8зюз6149517 0.0 1009461
06:00+8з6149410 0.0 1009528
09:00+11з8137984 0.0 10111082
12:00+12з71176100 0.3 10121337
15:00+14зсз91161100 0.4 10121674
18:00+14сз796610 0.1 10131515
21:00+9зсз358530 0.1 101584